Location: *
(31.2983°S, 151.4094°E)
Time: 16:44:40
(UTC+00:00)

Cosmos 2297 - Pass Details

Date: 21 November 2019
Orbit: 835 x 860 km, 71.0° (Epoch: 08 December)

Event Time Altitude Azimuth Distance (km) Brightness Sun altitude
Exits shadow 14:26:42 31° 162° (SSE) 1,437 5.3 -37.6°
Drops below altitude 10° 14:29:34 10° 161° (SSE) 2,471 6.9 -37.4°
Sets 14:32:01 0° 160° (SSE) 3,411 7.8 -37.3°
